Regional Weather Roundup
Issued by NWS Green Bay, WI

Home | Current Version | Previous Version | Graphics & Text | Print | Product List | Glossary Off
Versions: 1 2 3 4 5 6 7 8 9 10 11 12 13 14 15 16 17 18 19 20 21 22 23 24 25 26 27 28 29 30 31 32 33 34 35 36 37 38 39 40 41 42 43 44 45 46 47 48 49 50

000
ASUS43 KGRB 181400
RWRGRB

NORTH-CENTRAL AND NORTHEAST WISCONSIN REGIONAL WEATHER ROUNDUP
NATIONAL WEATHER SERVICE GREEN BAY WI
800 AM CST WED JAN 18 2017

WIZ005-009-010>012-018-019-181500-
NORTH CENTRAL WISCONSIN

CITY           SKY/WX    TMP DP  RH WIND       PRES   REMARKS
IRONWOOD       CLOUDY    32  24  72 S15G23    29.80S
MANITOWISH WTR NOT AVBL
ARBOR VITAE    NOT AVBL
EAGLE RIVER    NOT AVBL
LAND O LAKES   NOT AVBL
RHINELANDER    CLOUDY    29  28  96 SW9G18    29.89F
PHILLIPS       CLOUDY   N/A N/A N/A S9        29.87F
ANTIGO         NOT AVBL
TOMAHAWK       NOT AVBL
MERRILL        CLOUDY    29  29 100 CALM        N/A
$$

WIZ013-073-181500-
NORTHEAST WISCONSIN

CITY           SKY/WX    TMP DP  RH WIND       PRES   REMARKS
IRON MOUNTAIN  CLOUDY    12   8  84 SE3       29.88S FOG
MARINETTE      NOT AVBL
$$

WIZ017-030-035>037-045-181500-
CENTRAL WISCONSIN

CITY           SKY/WX    TMP DP  RH WIND       PRES   REMARKS
MEDFORD        NOT AVBL
WAUSAU         CLOUDY    29  28  96 SW13      29.95F
MOSINEE        CLOUDY    28  28 100 SW13      29.97F FOG
MARSHFIELD     CLOUDY    29  28  96 SW12      29.96F FOG
WISC RAPIDS    CLOUDY    31  31 100 SW9       30.01F
STEVENS POINT  NOT AVBL
WAUPACA        NOT AVBL
SHAWANO        NOT AVBL
CLINTONVILLE   CLOUDY    32  32 100 SW12G17   29.99F FOG
WAUTOMA        CLOUDY   N/A N/A N/A SW10      30.03F
$$

WIZ038-039-048-051-181500-
FOX VALLEY

CITY           SKY/WX    TMP DP  RH WIND       PRES   REMARKS
NWS GREEN BAY  CLOUDY    34  33  96 SW14G21   30.00F FOG
APPLETON       FOG       32  32 100 SW14      30.00R VSB 1/4
OSHKOSH        FOG       32  31  96 SW6       30.03R VSB 1
FOND DU LAC    CLOUDY    33  30  88 SW9       30.04S FOG
$$

WIZ022-050-052-181500-
EAST CENTRAL WISCONSIN

CITY           SKY/WX    TMP DP  RH WIND       PRES   REMARKS
EPHRAIM        NOT AVBL
WASHINGTON ISL NOT AVBL
STURGEON BAY   FOG       32  31  96 SW10      29.98S VSB 1/2
MANITOWOC      NOT AVBL
SHEBOYGAN      CLOUDY    33  31  92 SW15      30.03F FOG
$$

LMZ563-521-522-541>543-181500-
LAKESHORE

STATION/POSITION TIME  TEMP    WIND        PRES    VSBY  WAVE
                       AIR SEA DIR/SP/G                  HT/PER
                 (UTC) (F)     (DEG/KT/KT) (MB)    (MI)  (FT/S)
SHEBOYGAN LKSHOR 1300   34     250/  9/ 12 1017.8R
KEWAUNEE LKSHORE 1330   32     250/  7/ 11 1015.5F
ALGOMA MARINA    1254          260/ 10/ 12   N/A
SISTER BAY LKSHO 1320   31     230/ 10/ 12   N/A
MENOMINEE LKSHOR 1330          200/ 11/ 18 1014.0F
$$




USA.gov is the U.S. government's official web portal to all federal, state and local government web resources and services.